Location: Unspecified
(50.0000°N, 15.0000°E)
Time: 11:17:39
(UTC+00:00)

ISS - Visible Passes

Search period start: 14 December 2019 00:00
Search period end: 24 December 2019 00:00
Orbit: 411 x 421 km, 51.6° (Epoch: 15 December)

Date Brightness Start Highest point End Pass type
(mag) Time Alt. Az. Time Alt. Az. Time Alt. Az.
20 Dec -0.6 06:09:46 10° S 06:11:54 16° SE 06:14:02 10° E visible
21 Dec -0.1 05:23:01 10° SE 05:23:35 10° SE 05:24:11 10° SE visible
22 Dec -1.8 06:08:13 10° SSW 06:11:13 32° SSE 06:14:15 10° E visible
23 Dec -1.3 05:20:09 10° SSW 05:22:48 22° SE 05:25:28 10° E visible
